User: anonymous   Login
Location: Caltech
(34.1382°N, 118.1253°W)
Time: 12:18:24
(UTC-07:00)
Language:

Cosmos 2251 Rocket - Orbit

View from above orbital plane
View from above orbital plane
View from above satellite
View from above satellite

Ground track
Ground track

The orbit data is extracted from the following two-line orbital elements,

1 22676U 93036B   15144.08128586  .00000136  00000-0  58108-4 0  9993
2 22676 074.0413 122.7355 0019427 331.0490 028.9583 14.33786358147119
Epoch (UTC): 24 May 2015 01:57:03
Eccentricity: 0.0019427
inclination: 74.0413°
perigee height: 765 km
apogee height: 793 km
right ascension of ascending node: 122.7355°
argument of perigee: 331.0490°
revolutions per day: 14.33786358
mean anomaly at epoch: 28.9583°
orbit number at epoch: 14711

The dashed part of the orbit path shows where the satellite is in the earth's shadow,  

DLR